Time,TemperatureF,DewpointF,PressureIn,WindDirection,WindDirectionDegrees,WindSpeedMPH,WindSpeedGustMPH,Humidity,HourlyPrecipIn,Conditions,Clouds,dailyrainin,SoftwareType,DateUTC
2013-05-02 00:02:00,67.6,64.0,30.03,SSE,158,2.5,2.7,88,0.00,,---,0.00,VWS V14.01,2013-05-02 04:02:00,
2013-05-02 00:07:00,67.6,64.0,30.03,SSE,158,2.7,2.7,88,0.00,,---,0.00,VWS V14.01,2013-05-02 04:07:00,
2013-05-02 00:11:00,67.6,64.0,30.03,East,90,2.9,7.2,88,0.00,,---,0.00,VWS V14.01,2013-05-02 04:11:00,
2013-05-02 00:16:00,67.6,64.0,30.03,East,90,4.5,4.5,88,0.00,,---,0.00,VWS V14.01,2013-05-02 04:16:00,
2013-05-02 00:21:00,67.6,64.0,30.03,ENE,68,3.1,3.1,88,0.00,,---,0.00,VWS V14.01,2013-05-02 04:21:00,
2013-05-02 00:26:00,67.5,63.8,30.03,North,0,1.6,3.1,88,0.00,,---,0.00,VWS V14.01,2013-05-02 04:26:00,
2013-05-02 00:31:00,67.5,63.5,30.03,SSE,158,1.1,2.0,87,0.00,,---,0.00,VWS V14.01,2013-05-02 04:31:00,
2013-05-02 00:36:00,67.5,63.5,30.03,North,0,2.5,4.3,87,0.00,,---,0.00,VWS V14.01,2013-05-02 04:36:00,
2013-05-02 00:41:00,67.5,63.5,30.03,ESE,112,0.0,2.2,87,0.00,,---,0.00,VWS V14.01,2013-05-02 04:41:00,
2013-05-02 00:46:00,67.5,63.5,30.03,SE,135,1.6,2.7,87,0.00,,---,0.00,VWS V14.01,2013-05-02 04:46:00,
2013-05-02 00:51:00,67.5,63.5,30.03,East,90,1.1,2.9,87,0.00,,---,0.00,VWS V14.01,2013-05-02 04:51:00,
2013-05-02 00:57:00,67.5,63.5,30.03,NE,45,0.9,1.3,87,0.00,,---,0.00,VWS V14.01,2013-05-02 04:57:00,
2013-05-02 01:02:00,67.5,63.5,30.03,NE,45,3.4,3.6,87,0.00,,---,0.00,VWS V14.01,2013-05-02 05:02:00,
2013-05-02 01:07:00,67.5,63.8,30.03,West,270,0.0,1.3,88,0.00,,---,0.00,VWS V14.01,2013-05-02 05:07:00,
2013-05-02 01:12:00,67.5,63.8,30.03,East,90,5.4,5.4,88,0.00,,---,0.00,VWS V14.01,2013-05-02 05:12:00,
2013-05-02 01:17:00,67.5,63.8,30.03,East,90,1.6,2.7,88,0.00,,---,0.00,VWS V14.01,2013-05-02 05:17:00,
2013-05-02 01:23:00,67.5,63.8,30.00,NNE,22,2.2,2.7,88,0.00,,---,0.00,VWS V14.01,2013-05-02 05:23:00,
2013-05-02 01:28:00,67.5,63.8,30.00,ENE,68,0.0,2.2,88,0.00,,---,0.00,VWS V14.01,2013-05-02 05:28:00,
2013-05-02 01:33:00,67.5,63.8,30.00,East,90,0.0,1.3,88,0.00,,---,0.00,VWS V14.01,2013-05-02 05:33:00,
2013-05-02 01:39:00,67.5,63.8,30.03,ENE,68,0.0,0.9,88,0.00,,---,0.00,VWS V14.01,2013-05-02 05:39:00,
2013-05-02 01:44:00,67.5,63.8,30.03,East,90,1.3,1.3,88,0.00,,---,0.00,VWS V14.01,2013-05-02 05:44:00,
2013-05-02 01:49:00,67.5,63.8,30.03,NE,45,1.1,1.3,88,0.00,,---,0.00,VWS V14.01,2013-05-02 05:49:00,
2013-05-02 01:54:00,67.5,63.8,30.00,East,90,0.0,2.5,88,0.00,,---,0.00,VWS V14.01,2013-05-02 05:54:00,
2013-05-02 01:59:00,67.5,63.8,30.00,North,0,1.3,2.2,88,0.00,,---,0.00,VWS V14.01,2013-05-02 05:59:00,
2013-05-02 02:04:00,67.5,63.8,30.00,SE,135,0.0,0.0,88,0.00,,---,0.00,VWS V14.01,2013-05-02 06:04:00,
2013-05-02 02:09:00,67.5,63.8,30.00,East,90,1.1,1.1,88,0.00,,---,0.00,VWS V14.01,2013-05-02 06:09:00,
2013-05-02 02:14:00,67.5,63.8,30.00,SE,135,0.0,1.1,88,0.00,,---,0.00,VWS V14.01,2013-05-02 06:14:00,
2013-05-02 02:19:00,67.5,63.8,30.00,WNW,292,1.3,1.3,88,0.00,,---,0.00,VWS V14.01,2013-05-02 06:19:00,
2013-05-02 02:24:00,67.6,64.3,30.00,NNW,338,0.0,1.3,89,0.00,,---,0.00,VWS V14.01,2013-05-02 06:24:00,
2013-05-02 02:29:00,67.6,64.3,30.00,NE,45,0.0,0.0,89,0.00,,---,0.00,VWS V14.01,2013-05-02 06:29:00,
2013-05-02 02:34:00,67.6,64.3,30.00,NNW,338,0.0,0.0,89,0.00,,---,0.00,VWS V14.01,2013-05-02 06:34:00,
2013-05-02 02:39:00,67.6,64.3,30.00,ESE,112,0.0,0.0,89,0.00,,---,0.00,VWS V14.01,2013-05-02 06:39:00,
2013-05-02 02:44:00,67.6,64.3,30.00,NNE,22,1.1,1.1,89,0.00,,---,0.00,VWS V14.01,2013-05-02 06:44:00,
2013-05-02 02:49:00,67.6,64.3,30.00,SE,135,0.0,0.0,89,0.00,,---,0.00,VWS V14.01,2013-05-02 06:49:00,
2013-05-02 02:54:00,67.6,64.3,29.97,NNW,338,0.9,1.1,89,0.00,,---,0.00,VWS V14.01,2013-05-02 06:54:00,
2013-05-02 02:59:00,67.6,64.6,29.97,ESE,112,2.9,2.9,90,0.00,,---,0.00,VWS V14.01,2013-05-02 06:59:00,
2013-05-02 03:04:00,67.6,64.6,29.97,East,90,0.9,0.9,90,0.00,,---,0.00,VWS V14.01,2013-05-02 07:04:00,
2013-05-02 03:09:00,67.8,64.8,29.97,ESE,112,2.0,2.7,90,0.00,,---,0.00,VWS V14.01,2013-05-02 07:09:00,
2013-05-02 03:14:00,67.8,64.8,29.97,East,90,3.1,4.3,90,0.00,,---,0.00,VWS V14.01,2013-05-02 07:14:00,
2013-05-02 03:19:00,67.8,64.8,29.97,North,0,0.0,1.1,90,0.00,,---,0.00,VWS V14.01,2013-05-02 07:19:00,
2013-05-02 03:24:00,68.0,65.0,29.97,ENE,68,0.0,2.2,90,0.00,,---,0.00,VWS V14.01,2013-05-02 07:24:00,
2013-05-02 03:29:00,68.0,65.0,29.97,South,180,0.0,0.0,90,0.00,,---,0.00,VWS V14.01,2013-05-02 07:29:00,
2013-05-02 03:34:00,68.0,65.0,29.97,ENE,68,0.0,0.0,90,0.00,,---,0.00,VWS V14.01,2013-05-02 07:34:00,
2013-05-02 03:39:00,68.2,65.1,29.97,ENE,68,0.0,2.0,90,0.00,,---,0.00,VWS V14.01,2013-05-02 07:39:00,
2013-05-02 03:44:00,68.2,65.1,29.97,ENE,68,1.3,1.3,90,0.00,,---,0.00,VWS V14.01,2013-05-02 07:44:00,
2013-05-02 03:49:00,68.2,65.1,29.97,ENE,68,2.7,2.7,90,0.00,,---,0.00,VWS V14.01,2013-05-02 07:49:00,
2013-05-02 03:54:00,68.2,65.1,29.97,East,90,0.0,0.9,90,0.00,,---,0.00,VWS V14.01,2013-05-02 07:54:00,
2013-05-02 03:59:00,68.2,65.1,29.97,ENE,68,3.1,3.6,90,0.00,,---,0.00,VWS V14.01,2013-05-02 07:59:00,
2013-05-02 04:04:00,68.2,65.5,29.97,ESE,112,1.6,1.6,91,0.00,,---,0.00,VWS V14.01,2013-05-02 08:04:00,
2013-05-02 04:09:00,68.4,65.6,29.97,East,90,0.0,2.5,91,0.00,,---,0.00,VWS V14.01,2013-05-02 08:09:00,
2013-05-02 04:15:00,68.4,65.6,29.97,ENE,68,1.3,2.2,91,0.00,,---,0.00,VWS V14.01,2013-05-02 08:15:00,
2013-05-02 04:20:00,68.4,65.6,29.97,ENE,68,1.1,1.3,91,0.00,,---,0.00,VWS V14.01,2013-05-02 08:20:00,
2013-05-02 04:26:00,68.5,65.8,29.97,South,180,0.0,1.1,91,0.00,,---,0.00,VWS V14.01,2013-05-02 08:26:00,
2013-05-02 04:31:00,68.5,65.8,29.97,East,90,1.1,1.1,91,0.00,,---,0.00,VWS V14.01,2013-05-02 08:31:00,
2013-05-02 04:36:00,68.5,65.8,29.97,NNE,22,0.9,2.2,91,0.00,,---,0.00,VWS V14.01,2013-05-02 08:36:00,
2013-05-02 04:41:00,68.7,66.0,29.97,ENE,68,0.0,2.7,91,0.00,,---,0.00,VWS V14.01,2013-05-02 08:41:00,
2013-05-02 04:46:00,68.7,66.0,29.97,ENE,68,0.0,2.5,91,0.00,,---,0.00,VWS V14.01,2013-05-02 08:46:00,
2013-05-02 04:51:00,68.7,66.0,29.97,WNW,292,0.0,1.1,91,0.00,,---,0.00,VWS V14.01,2013-05-02 08:51:00,
2013-05-02 04:56:00,68.7,66.0,29.97,ESE,112,0.0,2.0,91,0.00,,---,0.00,VWS V14.01,2013-05-02 08:56:00,
2013-05-02 05:01:00,68.7,66.0,29.97,NNE,22,0.0,0.0,91,0.00,,---,0.00,VWS V14.01,2013-05-02 09:01:00,
2013-05-02 05:06:00,68.7,66.0,29.97,ENE,68,1.6,2.0,91,0.00,,---,0.00,VWS V14.01,2013-05-02 09:06:00,
2013-05-02 05:11:00,68.7,66.0,29.97,NE,45,0.0,2.0,91,0.00,,---,0.00,VWS V14.01,2013-05-02 09:11:00,
2013-05-02 05:16:00,68.7,66.0,29.97,East,90,0.0,1.1,91,0.00,,---,0.00,VWS V14.01,2013-05-02 09:16:00,
2013-05-02 05:21:00,68.7,66.0,29.97,NNE,22,0.0,0.0,91,0.00,,---,0.00,VWS V14.01,2013-05-02 09:21:00,
2013-05-02 05:27:00,68.7,66.0,29.97,WSW,248,0.0,1.1,91,0.00,,---,0.00,VWS V14.01,2013-05-02 09:27:00,
2013-05-02 05:32:00,68.7,66.0,29.97,East,90,0.0,0.0,91,0.00,,---,0.00,VWS V14.01,2013-05-02 09:32:00,
2013-05-02 05:37:00,68.7,66.0,29.97,ENE,68,0.9,1.1,91,0.00,,---,0.00,VWS V14.01,2013-05-02 09:37:00,
2013-05-02 05:42:00,68.7,66.0,29.97,East,90,2.7,2.7,91,0.00,,---,0.00,VWS V14.01,2013-05-02 09:42:00,
2013-05-02 05:47:00,68.7,66.0,29.97,NE,45,0.0,3.6,91,0.00,,---,0.00,VWS V14.01,2013-05-02 09:47:00,
2013-05-02 05:52:00,68.7,66.0,29.97,West,270,0.0,0.0,91,0.00,,---,0.00,VWS V14.01,2013-05-02 09:52:00,
2013-05-02 05:57:00,68.7,66.0,29.97,ESE,112,2.0,2.0,91,0.00,,---,0.00,VWS V14.01,2013-05-02 09:57:00,
2013-05-02 06:02:00,68.7,66.0,29.97,NNE,22,2.7,2.7,91,0.00,,---,0.00,VWS V14.01,2013-05-02 10:02:00,
2013-05-02 06:07:00,68.7,66.0,29.97,WNW,292,0.0,1.6,91,0.00,,---,0.00,VWS V14.01,2013-05-02 10:07:00,
2013-05-02 06:12:00,68.7,66.0,29.97,ENE,68,0.0,1.1,91,0.00,,---,0.00,VWS V14.01,2013-05-02 10:12:00,
2013-05-02 06:17:00,68.7,66.0,29.97,WNW,292,2.5,3.1,91,0.00,,---,0.00,VWS V14.01,2013-05-02 10:17:00,
2013-05-02 06:22:00,68.7,66.0,29.97,NW,315,0.0,0.0,91,0.00,,---,0.00,VWS V14.01,2013-05-02 10:22:00,
2013-05-02 06:27:00,68.7,66.0,29.97,ESE,112,2.5,2.5,91,0.00,,---,0.00,VWS V14.01,2013-05-02 10:27:00,
2013-05-02 06:32:00,68.7,66.0,29.97,ESE,112,1.3,2.2,91,0.00,,---,0.00,VWS V14.01,2013-05-02 10:32:00,
2013-05-02 06:38:00,68.7,65.7,29.97,West,270,1.6,6.9,90,0.00,,---,0.00,VWS V14.01,2013-05-02 10:38:00,
2013-05-02 06:43:00,68.5,65.5,29.97,North,0,2.5,2.5,90,0.00,,---,0.00,VWS V14.01,2013-05-02 10:43:00,
2013-05-02 06:48:00,68.4,65.3,29.97,NW,315,2.7,4.7,90,0.00,,---,0.00,VWS V14.01,2013-05-02 10:48:00,
2013-05-02 06:53:00,68.4,65.3,29.97,NNW,338,0.9,3.8,90,0.00,,---,0.00,VWS V14.01,2013-05-02 10:53:00,
2013-05-02 06:58:00,68.4,65.3,29.97,NE,45,1.6,2.7,90,0.00,,---,0.00,VWS V14.01,2013-05-02 10:58:00,
2013-05-02 07:03:00,68.4,65.0,29.97,NE,45,2.7,2.7,89,0.00,,---,0.00,VWS V14.01,2013-05-02 11:03:00,
2013-05-02 07:08:00,68.4,65.0,29.97,ENE,68,2.0,4.0,89,0.00,,---,0.00,VWS V14.01,2013-05-02 11:08:00,
2013-05-02 07:13:00,68.2,65.1,29.97,East,90,3.1,3.1,90,0.00,,---,0.00,VWS V14.01,2013-05-02 11:13:00,
2013-05-02 07:18:00,68.4,65.3,29.97,SE,135,2.7,2.7,90,0.00,,---,0.00,VWS V14.01,2013-05-02 11:18:00,
2013-05-02 07:23:00,68.4,65.3,29.97,ESE,112,2.7,2.7,90,0.00,,---,0.00,VWS V14.01,2013-05-02 11:23:00,
2013-05-02 07:28:00,68.4,65.3,29.97,NNE,22,1.3,3.4,90,0.00,,---,0.00,VWS V14.01,2013-05-02 11:28:00,
2013-05-02 07:33:00,68.4,65.3,29.97,NNE,22,1.1,3.1,90,0.00,,---,0.00,VWS V14.01,2013-05-02 11:33:00,
2013-05-02 07:38:00,68.4,65.3,29.97,NE,45,2.7,2.7,90,0.00,,---,0.00,VWS V14.01,2013-05-02 11:38:00,
2013-05-02 07:43:00,68.4,65.3,29.97,East,90,1.3,2.5,90,0.00,,---,0.00,VWS V14.01,2013-05-02 11:43:00,
2013-05-02 07:49:00,68.5,65.5,29.97,East,90,1.6,1.6,90,0.00,,---,0.00,VWS V14.01,2013-05-02 11:49:00,
2013-05-02 07:54:00,68.5,65.5,29.97,SSE,158,0.0,2.7,90,0.00,,---,0.00,VWS V14.01,2013-05-02 11:54:00,
2013-05-02 07:59:00,68.5,65.5,29.97,NNW,338,0.0,0.0,90,0.00,,---,0.00,VWS V14.01,2013-05-02 11:59:00,
2013-05-02 08:04:00,68.5,65.2,29.97,NNW,338,0.0,0.0,89,0.00,,---,0.00,VWS V14.01,2013-05-02 12:04:00,
2013-05-02 08:09:00,68.7,65.3,29.97,NNW,338,0.0,0.0,89,0.00,,---,0.00,VWS V14.01,2013-05-02 12:09:00,
2013-05-02 08:14:00,68.7,65.3,29.97,NNW,338,0.0,0.0,89,0.00,,---,0.00,VWS V14.01,2013-05-02 12:14:00,
2013-05-02 08:19:00,68.7,65.7,29.97,NNW,338,0.0,0.0,90,0.00,,---,0.00,VWS V14.01,2013-05-02 12:19:00,
2013-05-02 08:24:00,68.9,65.8,29.97,NNW,338,0.0,0.0,90,0.00,,---,0.00,VWS V14.01,2013-05-02 12:24:00,
2013-05-02 08:29:00,68.9,65.5,29.97,NNW,338,0.0,0.0,89,0.00,,---,0.00,VWS V14.01,2013-05-02 12:29:00,
2013-05-02 08:34:00,69.1,65.7,29.97,NNW,338,0.0,0.0,89,0.00,,---,0.00,VWS V14.01,2013-05-02 12:34:00,
2013-05-02 08:39:00,69.1,65.7,29.97,NNW,338,0.0,0.0,89,0.00,,---,0.00,VWS V14.01,2013-05-02 12:39:00,
2013-05-02 08:44:00,69.1,65.7,29.97,NNW,338,0.0,0.0,89,0.00,,---,0.00,VWS V14.01,2013-05-02 12:44:00,
2013-05-02 08:49:00,69.3,65.9,29.97,NNW,338,0.0,0.0,89,0.00,,---,0.00,VWS V14.01,2013-05-02 12:49:00,
2013-05-02 08:54:00,69.4,66.1,29.97,NNW,338,0.0,0.0,89,0.00,,---,0.00,VWS V14.01,2013-05-02 12:54:00,
2013-05-02 08:59:00,69.6,66.2,29.97,NNW,338,0.0,0.0,89,0.00,,---,0.00,VWS V14.01,2013-05-02 12:59:00,
2013-05-02 09:04:00,69.6,65.9,29.97,NNW,338,0.0,0.0,88,0.00,,---,0.00,VWS V14.01,2013-05-02 13:04:00,
2013-05-02 09:09:00,69.8,66.1,29.97,NNW,338,0.0,0.0,88,0.00,,---,0.00,VWS V14.01,2013-05-02 13:09:00,
2013-05-02 09:14:00,70.0,65.9,29.97,NNW,338,0.0,0.0,87,0.00,,---,0.00,VWS V14.01,2013-05-02 13:14:00,
2013-05-02 09:19:00,70.0,65.9,29.97,NNW,338,0.0,0.0,87,0.00,,---,0.00,VWS V14.01,2013-05-02 13:19:00,
2013-05-02 09:24:00,70.2,66.1,30.00,NNW,338,0.0,0.0,87,0.00,,---,0.00,VWS V14.01,2013-05-02 13:24:00,
2013-05-02 09:29:00,70.3,66.3,30.00,NNW,338,0.0,0.0,87,0.00,,---,0.00,VWS V14.01,2013-05-02 13:29:00,
2013-05-02 09:34:00,70.3,66.0,30.00,NNW,338,0.0,0.0,86,0.00,,---,0.00,VWS V14.01,2013-05-02 13:34:00,
2013-05-02 09:39:00,70.5,66.1,30.00,NNW,338,0.0,0.0,86,0.00,,---,0.00,VWS V14.01,2013-05-02 13:39:00,
2013-05-02 09:44:00,70.5,65.8,30.00,NNW,338,0.0,0.0,85,0.00,,---,0.00,VWS V14.01,2013-05-02 13:44:00,
2013-05-02 09:49:00,70.7,66.0,30.00,NE,45,6.0,8.1,85,0.00,,---,0.00,VWS V14.01,2013-05-02 13:49:00,
2013-05-02 09:54:00,70.9,66.2,30.00,NNW,338,1.6,2.9,85,0.00,,---,0.00,VWS V14.01,2013-05-02 13:54:00,
2013-05-02 09:59:00,70.9,66.2,30.00,SSE,158,1.6,5.4,85,0.00,,---,0.00,VWS V14.01,2013-05-02 13:59:00,
2013-05-02 10:05:00,71.1,66.0,30.00,SSE,158,0.0,3.8,84,0.00,,---,0.00,VWS V14.01,2013-05-02 14:05:00,
2013-05-02 10:10:00,71.1,66.0,30.00,East,90,2.2,3.1,84,0.00,,---,0.00,VWS V14.01,2013-05-02 14:10:00,
2013-05-02 10:15:00,71.1,66.0,30.00,ENE,68,3.1,3.4,84,0.00,,---,0.00,VWS V14.01,2013-05-02 14:15:00,
2013-05-02 10:20:00,71.1,65.6,30.00,NNE,22,0.0,1.1,83,0.00,,---,0.00,VWS V14.01,2013-05-02 14:20:00,
2013-05-02 10:26:00,71.1,66.0,30.00,ESE,112,0.0,0.0,84,0.00,,---,0.00,VWS V14.01,2013-05-02 14:26:00,
2013-05-02 10:32:00,71.1,65.6,30.00,ESE,112,0.0,2.0,83,0.00,,---,0.00,VWS V14.01,2013-05-02 14:32:00,
2013-05-02 10:38:00,71.1,66.0,30.00,ENE,68,3.4,3.4,84,0.00,,---,0.00,VWS V14.01,2013-05-02 14:38:00,
2013-05-02 10:43:00,71.1,65.6,30.00,East,90,3.4,3.4,83,0.00,,---,0.00,VWS V14.01,2013-05-02 14:43:00,
2013-05-02 10:48:00,71.1,65.6,30.00,North,0,3.4,3.4,83,0.00,,---,0.00,VWS V14.01,2013-05-02 14:48:00,
2013-05-02 10:53:00,71.2,66.2,30.00,East,90,1.3,3.6,84,0.00,,---,0.00,VWS V14.01,2013-05-02 14:53:00,
2013-05-02 10:59:00,71.2,66.2,30.00,East,90,2.5,2.5,84,0.00,,---,0.00,VWS V14.01,2013-05-02 14:59:00,
2013-05-02 11:04:00,71.4,66.7,30.00,ESE,112,3.4,3.4,85,0.00,,---,0.00,VWS V14.01,2013-05-02 15:04:00,
2013-05-02 11:09:00,71.6,66.5,30.00,East,90,3.6,3.8,84,0.00,,---,0.00,VWS V14.01,2013-05-02 15:09:00,
2013-05-02 11:14:00,71.6,66.5,30.00,ENE,68,2.9,2.9,84,0.00,,---,0.00,VWS V14.01,2013-05-02 15:14:00,
2013-05-02 11:19:00,72.0,67.2,30.00,ESE,112,4.9,4.9,85,0.00,,---,0.00,VWS V14.01,2013-05-02 15:19:00,
2013-05-02 11:25:00,72.0,67.2,30.00,East,90,1.3,2.2,85,0.00,,---,0.00,VWS V14.01,2013-05-02 15:25:00,
2013-05-02 11:30:00,72.1,67.4,30.00,SE,135,3.1,4.0,85,0.00,,---,0.00,VWS V14.01,2013-05-02 15:30:00,
2013-05-02 11:35:00,72.3,67.6,30.00,ENE,68,2.9,4.3,85,0.00,,---,0.00,VWS V14.01,2013-05-02 15:35:00,
2013-05-02 11:40:00,72.5,67.4,30.00,North,0,0.0,2.9,84,0.00,,---,0.00,VWS V14.01,2013-05-02 15:40:00,
2013-05-02 11:45:00,72.5,67.4,30.00,East,90,1.3,3.1,84,0.00,,---,0.00,VWS V14.01,2013-05-02 15:45:00,
2013-05-02 11:50:00,72.7,67.6,30.00,NE,45,2.0,3.6,84,0.00,,---,0.00,VWS V14.01,2013-05-02 15:50:00,
2013-05-02 11:55:00,72.9,67.8,30.00,South,180,0.0,2.2,84,0.00,,---,0.00,VWS V14.01,2013-05-02 15:55:00,
2013-05-02 12:01:00,73.0,67.6,30.00,ENE,68,0.9,0.9,83,0.00,,---,0.00,VWS V14.01,2013-05-02 16:01:00,
2013-05-02 12:06:00,73.4,67.9,29.97,ESE,112,2.5,3.4,83,0.00,,---,0.00,VWS V14.01,2013-05-02 16:06:00,
2013-05-02 12:11:00,73.6,68.1,29.97,East,90,2.5,2.5,83,0.00,,---,0.00,VWS V14.01,2013-05-02 16:11:00,
2013-05-02 12:16:00,73.8,67.9,29.97,SE,135,2.7,3.1,82,0.00,,---,0.00,VWS V14.01,2013-05-02 16:16:00,
2013-05-02 12:21:00,73.9,67.8,29.97,ESE,112,3.1,3.4,81,0.00,,---,0.00,VWS V14.01,2013-05-02 16:21:00,
2013-05-02 12:26:00,73.9,67.8,29.97,South,180,2.2,3.4,81,0.00,,---,0.00,VWS V14.01,2013-05-02 16:26:00,
2013-05-02 12:31:00,74.1,67.6,29.97,South,180,2.0,3.1,80,0.00,,---,0.00,VWS V14.01,2013-05-02 16:31:00,
2013-05-02 12:36:00,74.3,67.7,29.97,ESE,112,2.5,3.1,80,0.00,,---,0.00,VWS V14.01,2013-05-02 16:36:00,
2013-05-02 12:42:00,74.7,68.1,29.97,SSW,202,2.5,3.8,80,0.00,,---,0.00,VWS V14.01,2013-05-02 16:42:00,
2013-05-02 12:47:00,75.2,68.2,29.97,SW,225,3.8,3.8,79,0.00,,---,0.00,VWS V14.01,2013-05-02 16:47:00,
2013-05-02 12:52:00,75.4,68.1,29.97,SSE,158,0.9,2.7,78,0.00,,---,0.00,VWS V14.01,2013-05-02 16:52:00,
2013-05-02 12:57:00,75.6,68.2,29.97,East,90,2.5,4.7,78,0.00,,---,0.00,VWS V14.01,2013-05-02 16:57:00,
2013-05-02 13:02:00,75.9,68.2,29.97,SSE,158,2.0,2.9,77,0.00,,---,0.00,VWS V14.01,2013-05-02 17:02:00,
2013-05-02 13:07:00,76.1,68.4,29.97,East,90,1.3,1.3,77,0.00,,---,0.00,VWS V14.01,2013-05-02 17:07:00,
2013-05-02 13:12:00,76.3,68.2,29.97,ESE,112,2.2,2.2,76,0.00,,---,0.00,VWS V14.01,2013-05-02 17:12:00,
2013-05-02 13:17:00,76.6,68.1,29.97,ENE,68,1.6,2.9,75,0.00,,---,0.00,VWS V14.01,2013-05-02 17:17:00,
2013-05-02 13:22:00,76.8,68.3,29.97,South,180,2.2,2.7,75,0.00,,---,0.00,VWS V14.01,2013-05-02 17:22:00,
2013-05-02 13:27:00,77.0,67.7,29.97,ENE,68,1.3,2.5,73,0.00,,---,0.00,VWS V14.01,2013-05-02 17:27:00,
2013-05-02 13:32:00,77.4,67.2,29.97,SSE,158,2.2,2.2,71,0.00,,---,0.00,VWS V14.01,2013-05-02 17:32:00,
2013-05-02 13:38:00,77.4,66.8,29.97,SSE,158,4.0,4.0,70,0.00,,---,0.00,VWS V14.01,2013-05-02 17:38:00,
2013-05-02 13:43:00,77.5,66.6,29.97,ENE,68,1.6,1.6,69,0.00,,---,0.00,VWS V14.01,2013-05-02 17:43:00,
2013-05-02 13:48:00,77.9,66.9,29.97,ENE,68,1.6,1.6,69,0.00,,---,0.00,VWS V14.01,2013-05-02 17:48:00,
2013-05-02 13:53:00,78.1,67.1,29.97,ENE,68,1.6,1.6,69,0.00,,---,0.00,VWS V14.01,2013-05-02 17:53:00,
2013-05-02 13:58:00,78.3,67.3,29.97,ENE,68,1.6,1.6,69,0.00,,---,0.00,VWS V14.01,2013-05-02 17:58:00,
2013-05-02 14:03:00,78.4,67.0,29.97,ENE,68,1.6,1.6,68,0.00,,---,0.00,VWS V14.01,2013-05-02 18:03:00,
2013-05-02 14:08:00,78.6,67.2,29.94,ENE,68,1.6,1.6,68,0.00,,---,0.00,VWS V14.01,2013-05-02 18:08:00,
2013-05-02 14:13:00,78.8,66.9,29.94,East,90,1.6,1.6,67,0.00,,---,0.00,VWS V14.01,2013-05-02 18:13:00,
2013-05-02 14:18:00,79.2,67.3,29.94,East,90,1.6,1.6,67,0.00,,---,0.00,VWS V14.01,2013-05-02 18:18:00,
2013-05-02 14:23:00,79.3,67.0,29.94,East,90,1.6,1.6,66,0.00,,---,0.00,VWS V14.01,2013-05-02 18:23:00,
2013-05-02 14:28:00,79.5,66.7,29.94,East,90,1.6,1.6,65,0.00,,---,0.00,VWS V14.01,2013-05-02 18:28:00,
2013-05-02 14:33:00,79.7,66.5,29.94,East,90,1.6,1.6,64,0.00,,---,0.00,VWS V14.01,2013-05-02 18:33:00,
2013-05-02 14:38:00,79.9,66.2,29.94,East,90,1.6,1.6,63,0.00,,---,0.00,VWS V14.01,2013-05-02 18:38:00,
2013-05-02 14:43:00,79.9,66.6,29.94,ENE,68,0.0,0.0,64,0.00,,---,0.00,VWS V14.01,2013-05-02 18:43:00,
2013-05-02 14:49:00,79.9,65.2,29.94,ENE,68,1.3,1.3,61,0.00,,---,0.00,VWS V14.01,2013-05-02 18:49:00,
2013-05-02 14:54:00,79.7,64.6,29.94,SSE,158,0.0,0.0,60,0.00,,---,0.00,VWS V14.01,2013-05-02 18:54:00,
2013-05-02 14:59:00,79.5,64.9,29.94,SSW,202,1.3,1.3,61,0.00,,---,0.00,VWS V14.01,2013-05-02 18:59:00,
2013-05-02 15:04:00,79.5,64.9,29.94,SE,135,1.3,2.5,61,0.00,,---,0.00,VWS V14.01,2013-05-02 19:04:00,
2013-05-02 15:09:00,79.5,64.9,29.94,SE,135,3.1,3.1,61,0.00,,---,0.00,VWS V14.01,2013-05-02 19:09:00,
2013-05-02 15:15:00,79.5,64.9,29.94,SE,135,3.1,3.1,61,0.00,,---,0.00,VWS V14.01,2013-05-02 19:15:00,
2013-05-02 15:20:00,79.3,64.3,29.94,SE,135,3.1,3.1,60,0.00,,---,0.00,VWS V14.01,2013-05-02 19:20:00,
2013-05-02 15:25:00,79.2,64.1,29.94,SE,135,3.1,3.1,60,0.00,,---,0.00,VWS V14.01,2013-05-02 19:25:00,
2013-05-02 15:30:00,78.8,63.8,29.94,WNW,292,0.9,2.0,60,0.00,,---,0.00,VWS V14.01,2013-05-02 19:30:00,
2013-05-02 15:35:00,78.8,64.2,29.94,WSW,248,1.6,1.6,61,0.00,,---,0.00,VWS V14.01,2013-05-02 19:35:00,
2013-05-02 15:41:00,79.0,64.9,29.94,SSW,202,1.1,2.0,62,0.00,,---,0.00,VWS V14.01,2013-05-02 19:41:00,
2013-05-02 15:46:00,79.0,64.9,29.94,SSW,202,0.9,1.6,62,0.00,,---,0.00,VWS V14.01,2013-05-02 19:46:00,
2013-05-02 15:51:00,79.2,65.0,29.94,ESE,112,1.6,1.6,62,0.00,,---,0.00,VWS V14.01,2013-05-02 19:51:00,
2013-05-02 15:56:00,79.0,64.4,29.94,WSW,248,1.6,1.6,61,0.00,,---,0.00,VWS V14.01,2013-05-02 19:56:00,
2013-05-02 16:01:00,78.8,64.2,29.94,WNW,292,1.3,1.6,61,0.00,,---,0.00,VWS V14.01,2013-05-02 20:01:00,
2013-05-02 16:06:00,78.8,64.2,29.94,SW,225,1.1,2.2,61,0.00,,---,0.00,VWS V14.01,2013-05-02 20:06:00,
2013-05-02 16:11:00,78.8,64.7,29.94,SSE,158,3.1,3.1,62,0.00,,---,0.00,VWS V14.01,2013-05-02 20:11:00,
2013-05-02 16:16:00,78.6,64.5,29.94,South,180,0.0,0.0,62,0.00,,---,0.00,VWS V14.01,2013-05-02 20:16:00,
2013-05-02 16:21:00,78.6,64.5,29.91,East,90,2.0,2.0,62,0.00,,---,0.00,VWS V14.01,2013-05-02 20:21:00,
2013-05-02 16:26:00,78.6,64.1,29.91,SE,135,2.0,2.5,61,0.00,,---,0.00,VWS V14.01,2013-05-02 20:26:00,
2013-05-02 16:31:00,78.6,63.6,29.91,SSE,158,1.1,3.4,60,0.00,,---,0.00,VWS V14.01,2013-05-02 20:31:00,
2013-05-02 16:36:00,78.6,64.1,29.91,SSE,158,1.1,2.7,61,0.00,,---,0.00,VWS V14.01,2013-05-02 20:36:00,
2013-05-02 16:41:00,78.6,63.6,29.91,SE,135,3.6,3.6,60,0.00,,---,0.00,VWS V14.01,2013-05-02 20:41:00,
2013-05-02 16:47:00,78.6,63.6,29.91,ESE,112,1.3,1.3,60,0.00,,---,0.00,VWS V14.01,2013-05-02 20:47:00,
2013-05-02 16:53:00,78.6,63.6,29.91,SSE,158,2.9,4.3,60,0.00,,---,0.00,VWS V14.01,2013-05-02 20:53:00,
2013-05-02 16:58:00,78.4,63.9,29.91,SSE,158,2.2,2.5,61,0.00,,---,0.00,VWS V14.01,2013-05-02 20:58:00,
2013-05-02 17:03:00,78.4,64.3,29.91,WSW,248,1.6,1.6,62,0.00,,---,0.00,VWS V14.01,2013-05-02 21:03:00,
2013-05-02 17:08:00,78.4,64.3,29.91,ENE,68,1.1,2.7,62,0.00,,---,0.00,VWS V14.01,2013-05-02 21:08:00,
2013-05-02 17:13:00,78.6,64.5,29.91,SSE,158,4.0,4.0,62,0.00,,---,0.00,VWS V14.01,2013-05-02 21:13:00,
2013-05-02 17:18:00,78.8,64.2,29.91,SSE,158,4.0,4.0,61,0.00,,---,0.00,VWS V14.01,2013-05-02 21:18:00,
2013-05-02 17:23:00,79.3,64.7,29.91,SSE,158,4.0,4.0,61,0.00,,---,0.00,VWS V14.01,2013-05-02 21:23:00,
2013-05-02 17:28:00,79.7,64.6,29.91,SSW,202,2.0,2.5,60,0.00,,---,0.00,VWS V14.01,2013-05-02 21:28:00,
2013-05-02 17:33:00,79.5,64.4,29.91,SSW,202,2.0,2.0,60,0.00,,---,0.00,VWS V14.01,2013-05-02 21:33:00,
2013-05-02 17:38:00,79.7,64.1,29.88,SSW,202,2.0,2.0,59,0.00,,---,0.00,VWS V14.01,2013-05-02 21:38:00,
2013-05-02 17:43:00,80.2,64.6,29.88,SSW,202,2.0,2.0,59,0.00,,---,0.00,VWS V14.01,2013-05-02 21:43:00,
2013-05-02 17:48:00,80.4,62.8,29.88,SSW,202,2.0,2.0,55,0.00,,---,0.00,VWS V14.01,2013-05-02 21:48:00,
2013-05-02 17:53:00,80.8,62.6,29.88,SW,225,2.9,3.1,54,0.00,,---,0.00,VWS V14.01,2013-05-02 21:53:00,
2013-05-02 17:58:00,81.0,62.2,29.88,WNW,292,2.5,6.0,53,0.00,,---,0.00,VWS V14.01,2013-05-02 21:58:00,
2013-05-02 18:04:00,81.1,61.9,29.88,ENE,68,2.5,2.9,52,0.00,,---,0.00,VWS V14.01,2013-05-02 22:04:00,
2013-05-02 18:09:00,81.1,61.9,29.88,SW,225,1.1,2.0,52,0.00,,---,0.00,VWS V14.01,2013-05-02 22:09:00,
2013-05-02 18:14:00,81.3,62.6,29.88,North,0,3.4,3.4,53,0.00,,---,0.00,VWS V14.01,2013-05-02 22:14:00,
2013-05-02 18:19:00,81.5,62.7,29.88,NNW,338,0.0,0.0,53,0.00,,---,0.00,VWS V14.01,2013-05-02 22:19:00,
2013-05-02 18:24:00,81.9,63.1,29.91,NW,315,2.9,2.9,53,0.00,,---,0.00,VWS V14.01,2013-05-02 22:24:00,
2013-05-02 18:29:00,81.9,63.1,29.91,West,270,4.3,4.3,53,0.00,,---,0.00,VWS V14.01,2013-05-02 22:29:00,
2013-05-02 18:34:00,81.9,63.1,29.91,WNW,292,2.7,3.4,53,0.00,,---,0.00,VWS V14.01,2013-05-02 22:34:00,
2013-05-02 18:39:00,81.9,62.5,29.91,SW,225,1.6,3.4,52,0.00,,---,0.00,VWS V14.01,2013-05-02 22:39:00,
2013-05-02 18:44:00,81.5,61.7,29.91,SSW,202,0.0,2.7,51,0.00,,---,0.00,VWS V14.01,2013-05-02 22:44:00,
2013-05-02 18:49:00,81.3,61.5,29.91,WSW,248,1.3,3.1,51,0.00,,---,0.00,VWS V14.01,2013-05-02 22:49:00,
2013-05-02 18:54:00,81.1,61.3,29.91,NW,315,1.3,2.0,51,0.00,,---,0.00,VWS V14.01,2013-05-02 22:54:00,
2013-05-02 18:59:00,81.0,60.6,29.91,SSW,202,3.4,4.0,50,0.00,,---,0.00,VWS V14.01,2013-05-02 22:59:00,
2013-05-02 19:04:00,80.4,59.5,29.91,SE,135,2.9,4.9,49,0.00,,---,0.00,VWS V14.01,2013-05-02 23:04:00,
2013-05-02 19:09:00,79.9,59.6,29.91,WNW,292,1.3,1.3,50,0.00,,---,0.00,VWS V14.01,2013-05-02 23:09:00,
2013-05-02 19:14:00,79.2,58.9,29.91,SSW,202,0.0,2.9,50,0.00,,---,0.00,VWS V14.01,2013-05-02 23:14:00,
2013-05-02 19:19:00,79.0,59.3,29.91,SSW,202,0.0,1.3,51,0.00,,---,0.00,VWS V14.01,2013-05-02 23:19:00,
2013-05-02 19:24:00,78.6,59.0,29.91,WNW,292,2.2,3.8,51,0.00,,---,0.00,VWS V14.01,2013-05-02 23:24:00,
2013-05-02 19:29:00,78.3,59.2,29.91,SSW,202,2.9,2.9,52,0.00,,---,0.00,VWS V14.01,2013-05-02 23:29:00,
2013-05-02 19:34:00,77.9,59.4,29.91,NW,315,0.9,1.1,53,0.00,,---,0.00,VWS V14.01,2013-05-02 23:34:00,
2013-05-02 19:39:00,77.5,59.6,29.91,SSW,202,0.9,1.6,54,0.00,,---,0.00,VWS V14.01,2013-05-02 23:39:00,
2013-05-02 19:44:00,77.4,59.4,29.91,SW,225,1.3,2.7,54,0.00,,---,0.00,VWS V14.01,2013-05-02 23:44:00,
2013-05-02 19:49:00,77.2,59.8,29.91,West,270,0.9,2.5,55,0.00,,---,0.00,VWS V14.01,2013-05-02 23:49:00,
2013-05-02 19:55:00,76.8,60.0,29.91,West,270,0.0,1.3,56,0.00,,---,0.00,VWS V14.01,2013-05-02 23:55:00,
2013-05-02 20:00:00,76.6,59.8,29.91,WNW,292,1.1,1.1,56,0.00,,---,0.00,VWS V14.01,2013-05-03 00:00:00,
2013-05-02 20:06:00,76.5,60.1,29.91,SE,135,0.9,2.9,57,0.00,,---,0.00,VWS V14.01,2013-05-03 00:06:00,
2013-05-02 20:12:00,76.1,59.8,29.91,NNW,338,0.0,0.0,57,0.00,,---,0.00,VWS V14.01,2013-05-03 00:12:00,
2013-05-02 20:17:00,75.9,60.1,29.91,WSW,248,0.0,1.6,58,0.00,,---,0.00,VWS V14.01,2013-05-03 00:17:00,
2013-05-02 20:22:00,75.7,60.4,29.91,SSE,158,0.0,1.1,59,0.00,,---,0.00,VWS V14.01,2013-05-03 00:22:00,
2013-05-02 20:27:00,75.6,60.2,29.91,SSW,202,0.9,2.2,59,0.00,,---,0.00,VWS V14.01,2013-05-03 00:27:00,
2013-05-02 20:32:00,75.4,60.1,29.91,SSW,202,1.6,1.6,59,0.00,,---,0.00,VWS V14.01,2013-05-03 00:32:00,
2013-05-02 20:37:00,75.2,60.4,29.91,West,270,0.0,0.0,60,0.00,,---,0.00,VWS V14.01,2013-05-03 00:37:00,
2013-05-02 20:42:00,75.2,60.8,29.91,West,270,0.0,1.3,61,0.00,,---,0.00,VWS V14.01,2013-05-03 00:42:00,
2013-05-02 20:47:00,75.0,61.1,29.91,SW,225,0.0,0.0,62,0.00,,---,0.00,VWS V14.01,2013-05-03 00:47:00,
2013-05-02 20:52:00,74.8,61.0,29.91,WSW,248,0.0,0.0,62,0.00,,---,0.00,VWS V14.01,2013-05-03 00:52:00,
2013-05-02 20:58:00,74.7,61.2,29.91,SE,135,0.0,0.0,63,0.00,,---,0.00,VWS V14.01,2013-05-03 00:58:00,
2013-05-02 21:03:00,74.5,61.5,29.91,SE,135,0.0,0.0,64,0.00,,---,0.00,VWS V14.01,2013-05-03 01:03:00,
2013-05-02 21:08:00,74.3,61.3,29.91,East,90,0.0,0.0,64,0.00,,---,0.00,VWS V14.01,2013-05-03 01:08:00,
2013-05-02 21:13:00,74.3,62.2,29.91,East,90,0.0,0.0,66,0.00,,---,0.00,VWS V14.01,2013-05-03 01:13:00,
2013-05-02 21:18:00,74.1,62.0,29.91,East,90,0.0,0.0,66,0.00,,---,0.00,VWS V14.01,2013-05-03 01:18:00,
2013-05-02 21:23:00,73.9,61.9,29.91,East,90,0.0,0.0,66,0.00,,---,0.00,VWS V14.01,2013-05-03 01:23:00,
2013-05-02 21:29:00,73.8,62.1,29.91,ESE,112,0.0,0.0,67,0.00,,---,0.00,VWS V14.01,2013-05-03 01:29:00,
2013-05-02 21:34:00,73.6,62.0,29.91,ESE,112,0.0,0.0,67,0.00,,---,0.00,VWS V14.01,2013-05-03 01:34:00,
2013-05-02 21:40:00,73.2,62.0,29.91,ESE,112,0.0,0.0,68,0.00,,---,0.00,VWS V14.01,2013-05-03 01:40:00,
2013-05-02 21:45:00,73.0,62.3,29.91,East,90,0.0,0.0,69,0.00,,---,0.00,VWS V14.01,2013-05-03 01:45:00,
2013-05-02 21:50:00,73.0,62.3,29.91,East,90,0.0,0.0,69,0.00,,---,0.00,VWS V14.01,2013-05-03 01:50:00,
2013-05-02 21:56:00,72.9,62.5,29.91,East,90,0.0,0.0,70,0.00,,---,0.00,VWS V14.01,2013-05-03 01:56:00,
2013-05-02 22:01:00,72.7,62.3,29.91,East,90,0.0,0.0,70,0.00,,---,0.00,VWS V14.01,2013-05-03 02:01:00,
2013-05-02 22:06:00,72.7,62.7,29.91,East,90,0.0,0.0,71,0.00,,---,0.00,VWS V14.01,2013-05-03 02:06:00,
2013-05-02 22:11:00,72.5,62.6,29.91,East,90,0.0,0.0,71,0.00,,---,0.00,VWS V14.01,2013-05-03 02:11:00,
2013-05-02 22:16:00,72.5,62.6,29.91,East,90,0.0,0.0,71,0.00,,---,0.00,VWS V14.01,2013-05-03 02:16:00,
2013-05-02 22:21:00,72.3,62.8,29.91,East,90,0.0,0.0,72,0.00,,---,0.00,VWS V14.01,2013-05-03 02:21:00,
2013-05-02 22:26:00,72.1,62.6,29.91,East,90,0.0,0.0,72,0.00,,---,0.00,VWS V14.01,2013-05-03 02:26:00,
2013-05-02 22:31:00,72.1,62.6,29.91,East,90,0.0,0.0,72,0.00,,---,0.00,VWS V14.01,2013-05-03 02:31:00,
2013-05-02 22:36:00,72.0,62.8,29.91,East,90,0.0,0.0,73,0.00,,---,0.00,VWS V14.01,2013-05-03 02:36:00,
2013-05-02 22:41:00,72.0,62.8,29.91,East,90,0.0,0.0,73,0.00,,---,0.00,VWS V14.01,2013-05-03 02:41:00,
2013-05-02 22:46:00,71.8,63.1,29.91,East,90,0.0,0.0,74,0.00,,---,0.00,VWS V14.01,2013-05-03 02:46:00,
2013-05-02 22:51:00,71.8,63.1,29.94,East,90,0.0,0.0,74,0.00,,---,0.00,VWS V14.01,2013-05-03 02:51:00,
2013-05-02 22:56:00,71.6,62.9,29.94,East,90,0.0,0.0,74,0.00,,---,0.00,VWS V14.01,2013-05-03 02:56:00,
2013-05-02 23:01:00,71.4,63.1,29.94,East,90,0.0,0.0,75,0.00,,---,0.00,VWS V14.01,2013-05-03 03:01:00,
2013-05-02 23:06:00,71.4,63.1,29.91,East,90,0.0,0.0,75,0.00,,---,0.00,VWS V14.01,2013-05-03 03:06:00,
2013-05-02 23:12:00,71.2,63.3,29.91,East,90,0.0,0.0,76,0.00,,---,0.00,VWS V14.01,2013-05-03 03:12:00,
2013-05-02 23:17:00,71.2,63.3,29.91,ESE,112,0.0,0.0,76,0.00,,---,0.00,VWS V14.01,2013-05-03 03:17:00,
2013-05-02 23:22:00,71.2,63.3,29.94,SSW,202,0.0,0.0,76,0.00,,---,0.00,VWS V14.01,2013-05-03 03:22:00,
2013-05-02 23:28:00,71.1,63.1,29.94,East,90,0.0,0.0,76,0.00,,---,0.00,VWS V14.01,2013-05-03 03:28:00,
2013-05-02 23:33:00,71.1,63.1,29.94,East,90,0.0,0.0,76,0.00,,---,0.00,VWS V14.01,2013-05-03 03:33:00,
2013-05-02 23:38:00,71.1,63.5,29.94,SE,135,1.6,1.6,77,0.00,,---,0.00,VWS V14.01,2013-05-03 03:38:00,
2013-05-02 23:43:00,71.1,63.5,29.94,SE,135,0.0,0.0,77,0.00,,---,0.00,VWS V14.01,2013-05-03 03:43:00,
2013-05-02 23:48:00,70.9,63.3,29.94,SE,135,0.0,0.0,77,0.00,,---,0.00,VWS V14.01,2013-05-03 03:48:00,
2013-05-02 23:53:00,70.9,63.3,29.91,SE,135,0.0,0.0,77,0.00,,---,0.00,VWS V14.01,2013-05-03 03:53:00,
2013-05-02 23:58:00,70.9,63.3,29.91,SE,135,0.0,1.3,77,0.00,,---,0.00,VWS V14.01,2013-05-03 03:58:00,